Year,Month,Day,Hour,Minute,Value (Times are PST for temperature in C)
2018,04,24,00,00,8.70
2018,04,24,00,01,8.70
2018,04,24,00,02,8.70
2018,04,24,00,03,8.70
2018,04,24,00,04,8.70
2018,04,24,00,05,8.70
2018,04,24,00,06,8.70
2018,04,24,00,07,8.70
2018,04,24,00,08,8.70
2018,04,24,00,09,8.80
2018,04,24,00,10,8.70
2018,04,24,00,11,8.80
2018,04,24,00,12,8.70
2018,04,24,00,13,8.70
2018,04,24,00,14,8.70
2018,04,24,00,15,8.70
2018,04,24,00,16,8.70
2018,04,24,00,17,8.70
2018,04,24,00,18,8.70
2018,04,24,00,19,8.70
2018,04,24,00,20,8.70
2018,04,24,00,21,8.70
2018,04,24,00,22,8.70
2018,04,24,00,23,8.70
2018,04,24,00,24,8.70
2018,04,24,00,25,8.70
2018,04,24,00,26,8.70
2018,04,24,00,27,8.70
2018,04,24,00,28,8.70
2018,04,24,00,29,8.70
2018,04,24,00,30,8.70
2018,04,24,00,31,8.70
2018,04,24,00,32,8.70
2018,04,24,00,33,8.70
2018,04,24,00,34,8.70
2018,04,24,00,35,8.70
2018,04,24,00,36,8.60
2018,04,24,00,37,8.60
2018,04,24,00,38,8.60
2018,04,24,00,39,8.60
2018,04,24,00,40,8.60
2018,04,24,00,41,8.60
2018,04,24,00,42,8.60
2018,04,24,00,43,8.60
2018,04,24,00,44,8.60
2018,04,24,00,45,8.60
2018,04,24,00,46,8.60
2018,04,24,00,47,8.70
2018,04,24,00,48,8.70
2018,04,24,00,49,8.70
2018,04,24,00,50,8.70
2018,04,24,00,51,8.70
2018,04,24,00,52,8.70
2018,04,24,00,53,8.60
2018,04,24,00,54,8.60
2018,04,24,00,55,8.60
2018,04,24,00,56,8.60
2018,04,24,00,57,8.60
2018,04,24,00,58,8.60
2018,04,24,00,59,8.60
2018,04,24,01,00,8.60
2018,04,24,01,01,8.50
2018,04,24,01,02,8.50
2018,04,24,01,03,8.50
2018,04,24,01,04,8.50
2018,04,24,01,05,8.50
2018,04,24,01,06,8.50
2018,04,24,01,07,8.50
2018,04,24,01,08,8.50
2018,04,24,01,09,8.50
2018,04,24,01,10,8.40
2018,04,24,01,11,8.40
2018,04,24,01,12,8.40
2018,04,24,01,13,8.40
2018,04,24,01,14,8.40
2018,04,24,01,15,8.40
2018,04,24,01,16,8.40
2018,04,24,01,17,8.40
2018,04,24,01,18,8.40
2018,04,24,01,19,8.40
2018,04,24,01,20,8.50
2018,04,24,01,21,8.50
2018,04,24,01,22,8.50
2018,04,24,01,23,8.50
2018,04,24,01,24,8.50
2018,04,24,01,25,8.50
2018,04,24,01,26,8.50
2018,04,24,01,27,8.50
2018,04,24,01,28,8.40
2018,04,24,01,29,8.50
2018,04,24,01,30,8.40
2018,04,24,01,31,8.40
2018,04,24,01,32,8.40
2018,04,24,01,33,8.50
2018,04,24,01,34,8.40
2018,04,24,01,35,8.40
2018,04,24,01,36,8.50
2018,04,24,01,37,8.50
2018,04,24,01,38,8.50
2018,04,24,01,39,8.50
2018,04,24,01,40,8.50
2018,04,24,01,41,8.50
2018,04,24,01,42,8.50
2018,04,24,01,43,8.50
2018,04,24,01,44,8.50
2018,04,24,01,45,8.50
2018,04,24,01,46,8.50
2018,04,24,01,47,8.50
2018,04,24,01,48,8.50
2018,04,24,01,49,8.40
2018,04,24,01,50,8.40
2018,04,24,01,51,8.40
2018,04,24,01,52,8.40
2018,04,24,01,53,8.40
2018,04,24,01,54,8.40
2018,04,24,01,55,8.40
2018,04,24,01,56,8.40
2018,04,24,01,57,8.40
2018,04,24,01,58,8.40
2018,04,24,01,59,8.30
2018,04,24,02,00,8.30
2018,04,24,02,01,8.30
2018,04,24,02,02,8.30
2018,04,24,02,03,8.30
2018,04,24,02,04,8.30
2018,04,24,02,05,8.20
2018,04,24,02,06,8.20
2018,04,24,02,07,8.20
2018,04,24,02,08,8.20
2018,04,24,02,09,8.20
2018,04,24,02,10,8.20
2018,04,24,02,11,8.10
2018,04,24,02,12,8.10
2018,04,24,02,13,8.10
2018,04,24,02,14,8.10
2018,04,24,02,15,8.10
2018,04,24,02,16,8.10
2018,04,24,02,17,8.10
2018,04,24,02,18,8.10
2018,04,24,02,19,8.10
2018,04,24,02,20,8.10
2018,04,24,02,21,8.00
2018,04,24,02,22,8.00
2018,04,24,02,23,8.00
2018,04,24,02,24,8.00
2018,04,24,02,25,8.00
2018,04,24,02,26,8.00
2018,04,24,02,27,8.00
2018,04,24,02,28,8.00
2018,04,24,02,29,8.00
2018,04,24,02,30,8.00
2018,04,24,02,31,8.00
2018,04,24,02,32,8.00
2018,04,24,02,33,8.10
2018,04,24,02,34,8.10
2018,04,24,02,35,8.10
2018,04,24,02,36,8.10
2018,04,24,02,37,8.10
2018,04,24,02,38,8.10
2018,04,24,02,39,8.10
2018,04,24,02,40,8.10
2018,04,24,02,41,8.10
2018,04,24,02,42,8.10
2018,04,24,02,43,8.10
2018,04,24,02,44,8.10
2018,04,24,02,45,8.10
2018,04,24,02,46,8.10
2018,04,24,02,47,8.10
2018,04,24,02,48,8.10
2018,04,24,02,49,8.10
2018,04,24,02,50,8.10
2018,04,24,02,51,8.20
2018,04,24,02,52,8.20
2018,04,24,02,53,8.20
2018,04,24,02,54,8.20
2018,04,24,02,55,8.10
2018,04,24,02,56,8.10
2018,04,24,02,57,8.10
2018,04,24,02,58,8.10
2018,04,24,02,59,8.10
2018,04,24,03,00,8.10
2018,04,24,03,01,8.10
2018,04,24,03,02,8.10
2018,04,24,03,03,8.10
2018,04,24,03,04,8.10
2018,04,24,03,05,8.10
2018,04,24,03,06,8.10
2018,04,24,03,07,8.10
2018,04,24,03,08,8.10
2018,04,24,03,09,8.10
2018,04,24,03,10,8.10
2018,04,24,03,11,8.10
2018,04,24,03,12,8.10
2018,04,24,03,13,8.10
2018,04,24,03,14,8.10
2018,04,24,03,15,8.10
2018,04,24,03,16,8.10
2018,04,24,03,17,8.10
2018,04,24,03,18,8.10
2018,04,24,03,19,8.10
2018,04,24,03,20,8.10
2018,04,24,03,21,8.10
2018,04,24,03,22,8.10
2018,04,24,03,23,8.00
2018,04,24,03,24,8.00
2018,04,24,03,25,8.00
2018,04,24,03,26,8.00
2018,04,24,03,27,7.90
2018,04,24,03,28,7.90
2018,04,24,03,29,7.90
2018,04,24,03,30,7.90
2018,04,24,03,31,7.90
2018,04,24,03,32,7.90
2018,04,24,03,33,7.90
2018,04,24,03,34,7.90
2018,04,24,03,35,7.90
2018,04,24,03,36,7.90
2018,04,24,03,37,7.90
2018,04,24,03,38,7.90
2018,04,24,03,39,7.90
2018,04,24,03,40,7.90
2018,04,24,03,41,7.90
2018,04,24,03,42,7.90
2018,04,24,03,43,7.90
2018,04,24,03,44,7.90
2018,04,24,03,45,7.90
2018,04,24,03,46,7.90
2018,04,24,03,47,7.90
2018,04,24,03,48,7.90
2018,04,24,03,49,7.90
2018,04,24,03,50,7.90
2018,04,24,03,51,7.90
2018,04,24,03,52,7.90
2018,04,24,03,53,7.90
2018,04,24,03,54,7.90
2018,04,24,03,55,7.90
2018,04,24,03,56,7.90
2018,04,24,03,57,7.90
2018,04,24,03,58,7.90
2018,04,24,03,59,7.90
2018,04,24,04,00,7.90
2018,04,24,04,01,7.90
2018,04,24,04,02,7.90
2018,04,24,04,03,8.00
2018,04,24,04,04,8.00
2018,04,24,04,05,8.00
2018,04,24,04,06,8.00
2018,04,24,04,07,8.00
2018,04,24,04,08,8.00
2018,04,24,04,09,8.00
2018,04,24,04,10,8.00
2018,04,24,04,11,8.00
2018,04,24,04,12,8.00
2018,04,24,04,13,8.00
2018,04,24,04,14,8.00
2018,04,24,04,15,8.00
2018,04,24,04,16,7.90
2018,04,24,04,17,8.00
2018,04,24,04,18,8.00
2018,04,24,04,19,8.10
2018,04,24,04,20,8.20
2018,04,24,04,21,8.20
2018,04,24,04,22,8.30
2018,04,24,04,23,8.30
2018,04,24,04,24,8.30
2018,04,24,04,25,8.40
2018,04,24,04,26,8.40
2018,04,24,04,27,8.40
2018,04,24,04,28,8.40
2018,04,24,04,29,8.50
2018,04,24,04,30,8.50
2018,04,24,04,31,8.50
2018,04,24,04,32,8.50
2018,04,24,04,33,8.50
2018,04,24,04,34,8.40
2018,04,24,04,35,8.40
2018,04,24,04,36,8.40
2018,04,24,04,37,8.40
2018,04,24,04,38,8.40
2018,04,24,04,39,8.30
2018,04,24,04,40,8.30
2018,04,24,04,41,8.30
2018,04,24,04,42,8.30
2018,04,24,04,43,8.30
2018,04,24,04,44,8.20
2018,04,24,04,45,8.20
2018,04,24,04,46,8.20
2018,04,24,04,47,8.20
2018,04,24,04,48,8.20
2018,04,24,04,49,8.20
2018,04,24,04,50,8.20
2018,04,24,04,51,8.20
2018,04,24,04,52,8.20
2018,04,24,04,53,8.30
2018,04,24,04,54,8.30
2018,04,24,04,55,8.30
2018,04,24,04,56,8.30
2018,04,24,04,57,8.30
2018,04,24,04,58,8.30
2018,04,24,04,59,8.40
2018,04,24,05,00,8.40
2018,04,24,05,01,8.40
2018,04,24,05,02,8.40
2018,04,24,05,03,8.40
2018,04,24,05,04,8.40
2018,04,24,05,05,8.40
2018,04,24,05,06,8.50
2018,04,24,05,07,8.50
2018,04,24,05,08,8.50
2018,04,24,05,09,8.50
2018,04,24,05,10,8.50
2018,04,24,05,11,8.60
2018,04,24,05,12,8.60
2018,04,24,05,13,8.60
2018,04,24,05,14,8.60
2018,04,24,05,15,8.60
2018,04,24,05,16,8.60
2018,04,24,05,17,8.60
2018,04,24,05,18,8.50
2018,04,24,05,19,8.50
2018,04,24,05,20,8.50
2018,04,24,05,21,8.50
2018,04,24,05,22,8.50
2018,04,24,05,23,8.40
2018,04,24,05,24,8.40
2018,04,24,05,25,8.40
2018,04,24,05,26,8.40
2018,04,24,05,27,8.40
2018,04,24,05,28,8.30
2018,04,24,05,29,8.30
2018,04,24,05,30,8.30
2018,04,24,05,31,8.30
2018,04,24,05,32,8.20
2018,04,24,05,33,8.20
2018,04,24,05,34,8.20
2018,04,24,05,35,8.20
2018,04,24,05,36,8.10
2018,04,24,05,37,8.10
2018,04,24,05,38,8.00
2018,04,24,05,39,8.00
2018,04,24,05,40,7.90
2018,04,24,05,41,7.90
2018,04,24,05,42,7.90
2018,04,24,05,43,7.90
2018,04,24,05,44,7.90
2018,04,24,05,45,7.90
2018,04,24,05,46,7.90
2018,04,24,05,47,7.90
2018,04,24,05,48,8.00
2018,04,24,05,49,8.00
2018,04,24,05,50,8.00
2018,04,24,05,51,8.00
2018,04,24,05,52,8.10
2018,04,24,05,53,8.10
2018,04,24,05,54,8.10
2018,04,24,05,55,8.10
2018,04,24,05,56,8.10
2018,04,24,05,57,8.10
2018,04,24,05,58,8.00
2018,04,24,05,59,8.00
2018,04,24,06,00,8.00
2018,04,24,06,01,8.00
2018,04,24,06,02,8.00
2018,04,24,06,03,8.00
2018,04,24,06,04,7.90
2018,04,24,06,05,7.90
2018,04,24,06,06,7.90
2018,04,24,06,07,7.90
2018,04,24,06,08,7.90
2018,04,24,06,09,7.90
2018,04,24,06,10,7.90
2018,04,24,06,11,7.80
2018,04,24,06,12,7.80
2018,04,24,06,13,7.80
2018,04,24,06,14,7.80
2018,04,24,06,15,7.80
2018,04,24,06,16,7.80
2018,04,24,06,17,7.80
2018,04,24,06,18,7.80
2018,04,24,06,19,7.80
2018,04,24,06,20,7.80
2018,04,24,06,21,7.80
2018,04,24,06,22,7.80
2018,04,24,06,23,7.80
2018,04,24,06,24,7.80
2018,04,24,06,25,7.80
2018,04,24,06,26,7.80
2018,04,24,06,27,7.80
2018,04,24,06,28,7.80
2018,04,24,06,29,7.70
2018,04,24,06,30,7.70
2018,04,24,06,31,7.70
2018,04,24,06,32,7.70
2018,04,24,06,33,7.70
2018,04,24,06,34,7.70
2018,04,24,06,35,7.70
2018,04,24,06,36,7.60
2018,04,24,06,37,7.60
2018,04,24,06,38,7.60
2018,04,24,06,39,7.60
2018,04,24,06,40,7.60
2018,04,24,06,41,7.60
2018,04,24,06,42,7.60
2018,04,24,06,43,7.60
2018,04,24,06,44,7.60
2018,04,24,06,45,7.60
2018,04,24,06,46,7.60
2018,04,24,06,47,7.60
2018,04,24,06,48,7.60
2018,04,24,06,49,7.60
2018,04,24,06,50,7.60
2018,04,24,06,51,7.60
2018,04,24,06,52,7.60
2018,04,24,06,53,7.60
2018,04,24,06,54,7.60
2018,04,24,06,55,7.60
2018,04,24,06,56,7.70
2018,04,24,06,57,7.70
2018,04,24,06,58,7.70
2018,04,24,06,59,7.70
2018,04,24,07,00,7.70
2018,04,24,07,01,7.70
2018,04,24,07,02,7.70
2018,04,24,07,03,7.70
2018,04,24,07,04,7.70
2018,04,24,07,05,7.70
2018,04,24,07,06,7.70
2018,04,24,07,07,7.70
2018,04,24,07,08,7.70
2018,04,24,07,09,7.70
2018,04,24,07,10,7.70
2018,04,24,07,11,7.70
2018,04,24,07,12,7.70
2018,04,24,07,13,7.80
2018,04,24,07,14,7.80
2018,04,24,07,15,7.80
2018,04,24,07,16,7.80
2018,04,24,07,17,7.80
2018,04,24,07,18,7.80
2018,04,24,07,19,7.90
2018,04,24,07,20,7.90
2018,04,24,07,21,7.90
2018,04,24,07,22,7.90
2018,04,24,07,23,7.90
2018,04,24,07,24,7.90
2018,04,24,07,25,8.00
2018,04,24,07,26,8.00
2018,04,24,07,27,8.10
2018,04,24,07,28,8.10
2018,04,24,07,29,8.20
2018,04,24,07,30,8.20
2018,04,24,07,31,8.30
2018,04,24,07,32,8.30
2018,04,24,07,33,8.30
2018,04,24,07,34,8.40
2018,04,24,07,35,8.40
2018,04,24,07,36,8.50
2018,04,24,07,37,8.50
2018,04,24,07,38,8.60
2018,04,24,07,39,8.70
2018,04,24,07,40,8.70
2018,04,24,07,41,8.80
2018,04,24,07,42,8.90
2018,04,24,07,43,8.90
2018,04,24,07,44,9.00
2018,04,24,07,45,9.00
2018,04,24,07,46,9.10
2018,04,24,07,47,9.10
2018,04,24,07,48,9.20
2018,04,24,07,49,9.20
2018,04,24,07,50,9.20
2018,04,24,07,51,9.20
2018,04,24,07,52,9.30
2018,04,24,07,53,9.30
2018,04,24,07,54,9.30
2018,04,24,07,55,9.30
2018,04,24,07,56,9.40
2018,04,24,07,57,9.40
2018,04,24,07,58,9.50
2018,04,24,07,59,9.60
2018,04,24,08,00,9.70
2018,04,24,08,01,9.80
2018,04,24,08,02,9.90
2018,04,24,08,03,10.00
2018,04,24,08,04,10.10
2018,04,24,08,05,10.20
2018,04,24,08,06,10.30
2018,04,24,08,07,10.40
2018,04,24,08,08,10.50
2018,04,24,08,09,10.70
2018,04,24,08,10,10.70
2018,04,24,08,11,10.90
2018,04,24,08,12,11.00
2018,04,24,08,13,11.10
2018,04,24,08,14,11.20
2018,04,24,08,15,11.30
2018,04,24,08,16,11.40
2018,04,24,08,17,11.50
2018,04,24,08,18,11.60
2018,04,24,08,19,11.70
2018,04,24,08,20,11.80
2018,04,24,08,21,11.80
2018,04,24,08,22,11.90
2018,04,24,08,23,12.00
2018,04,24,08,24,12.10
2018,04,24,08,25,12.10
2018,04,24,08,26,12.10
2018,04,24,08,27,12.10
2018,04,24,08,28,12.00
2018,04,24,08,29,12.00
2018,04,24,08,30,12.00
2018,04,24,08,31,11.90
2018,04,24,08,32,11.90
2018,04,24,08,33,11.90
2018,04,24,08,34,11.90
2018,04,24,08,35,11.90
2018,04,24,08,36,12.00
2018,04,24,08,37,12.00
2018,04,24,08,38,12.10
2018,04,24,08,39,12.10
2018,04,24,08,40,12.30
2018,04,24,08,41,12.40
2018,04,24,08,42,12.40
2018,04,24,08,43,12.40
2018,04,24,08,44,12.50
2018,04,24,08,45,12.50
2018,04,24,08,46,12.50
2018,04,24,08,47,12.50
2018,04,24,08,48,12.50
2018,04,24,08,49,12.50
2018,04,24,08,50,12.60
2018,04,24,08,51,12.60
2018,04,24,08,52,12.70
2018,04,24,08,53,12.90
2018,04,24,08,54,13.00
2018,04,24,08,55,13.00
2018,04,24,08,56,13.10
2018,04,24,08,57,13.10
2018,04,24,08,58,13.00
2018,04,24,08,59,13.00
2018,04,24,09,00,13.10
2018,04,24,09,01,13.20
2018,04,24,09,02,13.20
2018,04,24,09,03,13.30
2018,04,24,09,04,13.30
2018,04,24,09,05,13.30
2018,04,24,09,06,13.30
2018,04,24,09,07,13.30
2018,04,24,09,08,13.30
2018,04,24,09,09,13.30
2018,04,24,09,10,13.30
2018,04,24,09,11,13.40
2018,04,24,09,12,13.40
2018,04,24,09,13,13.50
2018,04,24,09,14,13.60
2018,04,24,09,15,13.70
2018,04,24,09,16,13.70
2018,04,24,09,17,13.70
2018,04,24,09,18,13.80
2018,04,24,09,19,13.70
2018,04,24,09,20,13.70
2018,04,24,09,21,13.80
2018,04,24,09,22,13.80
2018,04,24,09,23,13.80
2018,04,24,09,24,13.80
2018,04,24,09,25,13.80
2018,04,24,09,26,13.90
2018,04,24,09,27,14.00
2018,04,24,09,28,14.00
2018,04,24,09,29,14.10
2018,04,24,09,30,14.10
2018,04,24,09,31,14.20
2018,04,24,09,32,14.20
2018,04,24,09,33,14.30
2018,04,24,09,34,14.40
2018,04,24,09,35,14.40
2018,04,24,09,36,14.50
2018,04,24,09,37,14.60
2018,04,24,09,38,14.70
2018,04,24,09,39,14.70
2018,04,24,09,40,14.60
2018,04,24,09,41,14.60
2018,04,24,09,42,14.70
2018,04,24,09,43,14.60
2018,04,24,09,44,14.60
2018,04,24,09,45,14.50
2018,04,24,09,46,14.50
2018,04,24,09,47,14.50
2018,04,24,09,48,14.40
2018,04,24,09,49,14.50
2018,04,24,09,50,14.70
2018,04,24,09,51,14.80
2018,04,24,09,52,14.80
2018,04,24,09,53,15.00
2018,04,24,09,54,15.10
2018,04,24,09,55,15.20
2018,04,24,09,56,15.20
2018,04,24,09,57,15.10
2018,04,24,09,58,15.10
2018,04,24,09,59,15.00
2018,04,24,10,00,15.00
2018,04,24,10,01,14.90
2018,04,24,10,02,14.90
2018,04,24,10,03,14.90
2018,04,24,10,04,15.00
2018,04,24,10,05,15.10
2018,04,24,10,06,15.10
2018,04,24,10,07,15.20
2018,04,24,10,08,15.20
2018,04,24,10,09,15.20
2018,04,24,10,10,15.20
2018,04,24,10,11,15.20
2018,04,24,10,12,15.30
2018,04,24,10,13,15.30
2018,04,24,10,14,15.30
2018,04,24,10,15,15.30
2018,04,24,10,16,15.40
2018,04,24,10,17,15.40
2018,04,24,10,18,15.40
2018,04,24,10,19,15.40
2018,04,24,10,20,15.40
2018,04,24,10,21,15.30
2018,04,24,10,22,15.40
2018,04,24,10,23,15.40
2018,04,24,10,24,15.50
2018,04,24,10,25,15.60
2018,04,24,10,26,15.70
2018,04,24,10,27,15.80
2018,04,24,10,28,15.90
2018,04,24,10,29,16.00
2018,04,24,10,30,16.10
2018,04,24,10,31,16.20
2018,04,24,10,32,16.20
2018,04,24,10,33,16.10
2018,04,24,10,34,16.10
2018,04,24,10,35,16.10
2018,04,24,10,36,16.00
2018,04,24,10,37,15.90
2018,04,24,10,38,15.90
2018,04,24,10,39,15.80
2018,04,24,10,40,15.80
2018,04,24,10,41,15.90
2018,04,24,10,42,16.00
2018,04,24,10,43,16.10
2018,04,24,10,44,16.10
2018,04,24,10,45,16.20
2018,04,24,10,46,16.20
2018,04,24,10,47,16.30
2018,04,24,10,48,16.30
2018,04,24,10,49,16.40
2018,04,24,10,50,16.50
2018,04,24,10,51,16.60
2018,04,24,10,52,16.70
2018,04,24,10,53,16.70
2018,04,24,10,54,16.80
2018,04,24,10,55,16.90
2018,04,24,10,56,16.90
2018,04,24,10,57,17.00
2018,04,24,10,58,17.20
2018,04,24,10,59,17.30
2018,04,24,11,00,17.40
2018,04,24,11,01,17.50
2018,04,24,11,02,17.50
2018,04,24,11,03,17.40
2018,04,24,11,04,17.40
2018,04,24,11,05,17.40
2018,04,24,11,06,17.40
2018,04,24,11,07,17.40
2018,04,24,11,08,17.50
2018,04,24,11,09,17.60
2018,04,24,11,10,17.60
2018,04,24,11,11,17.50
2018,04,24,11,12,17.50
2018,04,24,11,13,17.40
2018,04,24,11,14,17.30
2018,04,24,11,15,17.30
2018,04,24,11,16,17.40
2018,04,24,11,17,17.50
2018,04,24,11,18,17.60
2018,04,24,11,19,17.50
2018,04,24,11,20,17.50
2018,04,24,11,21,17.50
2018,04,24,11,22,17.60
2018,04,24,11,23,17.80
2018,04,24,11,24,17.80
2018,04,24,11,25,17.90
2018,04,24,11,26,17.90
2018,04,24,11,27,17.80
2018,04,24,11,28,17.80
2018,04,24,11,29,17.80
2018,04,24,11,30,17.80
2018,04,24,11,31,17.70
2018,04,24,11,32,17.60
2018,04,24,11,33,17.60
2018,04,24,11,34,17.70
2018,04,24,11,35,17.80
2018,04,24,11,36,17.80
2018,04,24,11,37,17.90
2018,04,24,11,38,17.90
2018,04,24,11,39,17.90
2018,04,24,11,40,17.80
2018,04,24,11,41,17.60
2018,04,24,11,42,17.60
2018,04,24,11,43,17.60
2018,04,24,11,44,17.60
2018,04,24,11,45,17.80
2018,04,24,11,46,17.80
2018,04,24,11,47,17.70
2018,04,24,11,48,17.70
2018,04,24,11,49,17.70
2018,04,24,11,50,17.90
2018,04,24,11,51,17.80
2018,04,24,11,52,17.80
2018,04,24,11,53,17.70
2018,04,24,11,54,17.80
2018,04,24,11,55,17.80
2018,04,24,11,56,17.80
2018,04,24,11,57,17.90
2018,04,24,11,58,18.00
2018,04,24,11,59,18.00
2018,04,24,12,00,18.00
2018,04,24,12,01,17.90
2018,04,24,12,02,17.80
2018,04,24,12,03,17.70
2018,04,24,12,04,17.60
2018,04,24,12,05,17.50
2018,04,24,12,06,17.50
2018,04,24,12,07,17.50
2018,04,24,12,08,17.60
2018,04,24,12,09,17.70
2018,04,24,12,10,17.60
2018,04,24,12,11,17.50
2018,04,24,12,12,17.40
2018,04,24,12,13,17.30
2018,04,24,12,14,17.30
2018,04,24,12,15,17.20
2018,04,24,12,16,17.10
2018,04,24,12,17,17.10
2018,04,24,12,18,17.10
2018,04,24,12,19,17.10
2018,04,24,12,20,17.10
2018,04,24,12,21,17.20
2018,04,24,12,22,17.30
2018,04,24,12,23,17.40
2018,04,24,12,24,17.50
2018,04,24,12,25,17.70
2018,04,24,12,26,17.80
2018,04,24,12,27,17.90
2018,04,24,12,28,18.00
2018,04,24,12,29,18.00
2018,04,24,12,30,18.00
2018,04,24,12,31,17.90
2018,04,24,12,32,17.80
2018,04,24,12,33,17.70
2018,04,24,12,34,17.50
2018,04,24,12,35,17.40
2018,04,24,12,36,17.60
2018,04,24,12,37,17.70
2018,04,24,12,38,17.60
2018,04,24,12,39,17.40
2018,04,24,12,40,17.30
2018,04,24,12,41,17.30
2018,04,24,12,42,17.30
2018,04,24,12,43,17.20
2018,04,24,12,44,17.20
2018,04,24,12,45,17.20
2018,04,24,12,46,17.20
2018,04,24,12,47,17.20
2018,04,24,12,48,17.30
2018,04,24,12,49,17.40
2018,04,24,12,50,17.50
2018,04,24,12,51,17.60
2018,04,24,12,52,17.70
2018,04,24,12,53,17.70
2018,04,24,12,54,17.70
2018,04,24,12,55,17.60
2018,04,24,12,56,17.60
2018,04,24,12,57,17.60
2018,04,24,12,58,17.60
2018,04,24,12,59,17.70
2018,04,24,13,00,17.70
2018,04,24,13,01,17.70
2018,04,24,13,02,17.70
2018,04,24,13,03,17.70
2018,04,24,13,04,17.70
2018,04,24,13,05,17.60
2018,04,24,13,06,17.60
2018,04,24,13,07,17.60
2018,04,24,13,08,17.60
2018,04,24,13,09,17.70
2018,04,24,13,10,17.80
2018,04,24,13,11,17.80
2018,04,24,13,12,17.80
2018,04,24,13,13,17.80
2018,04,24,13,14,18.00
2018,04,24,13,15,18.10
2018,04,24,13,16,18.10
2018,04,24,13,17,18.20
2018,04,24,13,18,18.30
2018,04,24,13,19,18.40
2018,04,24,13,20,18.50
2018,04,24,13,21,18.50
2018,04,24,13,22,18.40
2018,04,24,13,23,18.30
2018,04,24,13,24,18.10
2018,04,24,13,25,18.00
2018,04,24,13,26,18.00
2018,04,24,13,27,18.10
2018,04,24,13,28,18.20
2018,04,24,13,29,18.20
2018,04,24,13,30,18.20
2018,04,24,13,31,18.10
2018,04,24,13,32,18.20
2018,04,24,13,33,18.20
2018,04,24,13,34,18.20
2018,04,24,13,35,18.20
2018,04,24,13,36,18.20
2018,04,24,13,37,18.20
2018,04,24,13,38,18.20
2018,04,24,13,39,18.20
2018,04,24,13,40,18.30
2018,04,24,13,41,18.50
2018,04,24,13,42,18.60
2018,04,24,13,43,18.70
2018,04,24,13,44,18.80
2018,04,24,13,45,18.80
2018,04,24,13,46,19.00
2018,04,24,13,47,19.00
2018,04,24,13,48,19.00
2018,04,24,13,49,19.10
2018,04,24,13,50,19.00
2018,04,24,13,51,19.00
2018,04,24,13,52,19.00
2018,04,24,13,53,19.00
2018,04,24,13,54,18.90
2018,04,24,13,55,18.90
2018,04,24,13,56,18.70
2018,04,24,13,57,18.50
2018,04,24,13,58,18.40
2018,04,24,13,59,18.40
2018,04,24,14,00,18.30
2018,04,24,14,01,18.30
2018,04,24,14,02,18.30
2018,04,24,14,03,18.50
2018,04,24,14,04,18.60
2018,04,24,14,05,18.60
2018,04,24,14,06,18.50
2018,04,24,14,07,18.40
2018,04,24,14,08,18.30
2018,04,24,14,09,18.20
2018,04,24,14,10,18.10
2018,04,24,14,11,18.00
2018,04,24,14,12,18.00
2018,04,24,14,13,18.00
2018,04,24,14,14,17.90
2018,04,24,14,15,17.80
2018,04,24,14,16,17.80
2018,04,24,14,17,17.70
2018,04,24,14,18,17.60
2018,04,24,14,19,17.60
2018,04,24,14,20,17.60
2018,04,24,14,21,17.60
2018,04,24,14,22,17.60
2018,04,24,14,23,17.60
2018,04,24,14,24,17.60
2018,04,24,14,25,17.50
2018,04,24,14,26,17.40
2018,04,24,14,27,17.50
2018,04,24,14,28,17.60
2018,04,24,14,29,17.80
2018,04,24,14,30,17.90
2018,04,24,14,31,18.00
2018,04,24,14,32,18.00
2018,04,24,14,33,18.10
2018,04,24,14,34,18.10
2018,04,24,14,35,18.10
2018,04,24,14,36,18.00
2018,04,24,14,37,18.00
2018,04,24,14,38,18.10
2018,04,24,14,39,18.20
2018,04,24,14,40,18.20
2018,04,24,14,41,18.20
2018,04,24,14,42,18.10
2018,04,24,14,43,18.20
2018,04,24,14,44,18.20
2018,04,24,14,45,18.20
2018,04,24,14,46,18.30
2018,04,24,14,47,18.50
2018,04,24,14,48,18.70
2018,04,24,14,49,18.90
2018,04,24,14,50,19.20
2018,04,24,14,51,19.40
2018,04,24,14,52,19.50
2018,04,24,14,53,19.60
2018,04,24,14,54,19.50
2018,04,24,14,55,19.50
2018,04,24,14,56,19.60
2018,04,24,14,57,19.70
2018,04,24,14,58,19.70
2018,04,24,14,59,19.80
2018,04,24,15,00,19.90
2018,04,24,15,01,19.90
2018,04,24,15,02,19.90
2018,04,24,15,03,19.80
2018,04,24,15,04,19.70
2018,04,24,15,05,19.50
2018,04,24,15,06,19.40
2018,04,24,15,07,19.20
2018,04,24,15,08,19.20
2018,04,24,15,09,19.10
2018,04,24,15,10,19.10
2018,04,24,15,11,19.10
2018,04,24,15,12,19.10
2018,04,24,15,13,19.10
2018,04,24,15,14,19.10
2018,04,24,15,15,19.10
2018,04,24,15,16,19.20
2018,04,24,15,17,19.20
2018,04,24,15,18,19.10
2018,04,24,15,19,19.20
2018,04,24,15,20,19.30
2018,04,24,15,21,19.30
2018,04,24,15,22,19.30
2018,04,24,15,23,19.30
2018,04,24,15,24,19.20
2018,04,24,15,25,19.30
2018,04,24,15,26,19.40
2018,04,24,15,27,19.40
2018,04,24,15,28,19.50
2018,04,24,15,29,19.60
2018,04,24,15,30,19.80
2018,04,24,15,31,19.80
2018,04,24,15,32,19.80
2018,04,24,15,33,19.70
2018,04,24,15,34,19.60
2018,04,24,15,35,19.60
2018,04,24,15,36,19.60
2018,04,24,15,37,19.50
2018,04,24,15,38,19.30
2018,04,24,15,39,19.30
2018,04,24,15,40,19.30
2018,04,24,15,41,19.40
2018,04,24,15,42,19.40
2018,04,24,15,43,19.20
2018,04,24,15,44,19.20
2018,04,24,15,45,19.10
2018,04,24,15,46,19.00
2018,04,24,15,47,19.00
2018,04,24,15,48,19.00
2018,04,24,15,49,19.10
2018,04,24,15,50,19.10
2018,04,24,15,51,19.10
2018,04,24,15,52,19.10
2018,04,24,15,53,19.10
2018,04,24,15,54,19.10
2018,04,24,15,55,19.10
2018,04,24,15,56,19.20
2018,04,24,15,57,19.10
2018,04,24,15,58,19.10
2018,04,24,15,59,19.00
2018,04,24,16,00,19.00
2018,04,24,16,01,19.10
2018,04,24,16,02,19.10
2018,04,24,16,03,19.10
2018,04,24,16,04,19.00
2018,04,24,16,05,19.00
2018,04,24,16,06,19.20
2018,04,24,16,07,19.20
2018,04,24,16,08,19.30
2018,04,24,16,09,19.40
2018,04,24,16,10,19.50
2018,04,24,16,11,19.50
2018,04,24,16,12,19.50
2018,04,24,16,13,19.60
2018,04,24,16,14,19.50
2018,04,24,16,15,19.50
2018,04,24,16,16,19.40
2018,04,24,16,17,19.40
2018,04,24,16,18,19.30
2018,04,24,16,19,19.10
2018,04,24,16,20,18.90
2018,04,24,16,21,18.80
2018,04,24,16,22,18.80
2018,04,24,16,23,18.80
2018,04,24,16,24,18.90
2018,04,24,16,25,19.00
2018,04,24,16,26,19.10
2018,04,24,16,27,19.20
2018,04,24,16,28,19.20
2018,04,24,16,29,19.20
2018,04,24,16,30,19.30
2018,04,24,16,31,19.40
2018,04,24,16,32,19.50
2018,04,24,16,33,19.60
2018,04,24,16,34,19.60
2018,04,24,16,35,19.60
2018,04,24,16,36,19.60
2018,04,24,16,37,19.70
2018,04,24,16,38,19.60
2018,04,24,16,39,19.50
2018,04,24,16,40,19.40
2018,04,24,16,41,19.50
2018,04,24,16,42,19.60
2018,04,24,16,43,19.70
2018,04,24,16,44,19.80
2018,04,24,16,45,19.90
2018,04,24,16,46,20.00
2018,04,24,16,47,20.00
2018,04,24,16,48,20.00
2018,04,24,16,49,20.00
2018,04,24,16,50,19.90
2018,04,24,16,51,19.90
2018,04,24,16,52,19.90
2018,04,24,16,53,20.00
2018,04,24,16,54,20.10
2018,04,24,16,55,20.10
2018,04,24,16,56,20.20
2018,04,24,16,57,20.20
2018,04,24,16,58,20.10
2018,04,24,16,59,19.90
2018,04,24,17,00,19.80
2018,04,24,17,01,19.70
2018,04,24,17,02,19.60
2018,04,24,17,03,19.50
2018,04,24,17,04,19.50
2018,04,24,17,05,19.40
2018,04,24,17,06,19.40
2018,04,24,17,07,19.40
2018,04,24,17,08,19.40
2018,04,24,17,09,19.30
2018,04,24,17,10,19.20
2018,04,24,17,11,19.20
2018,04,24,17,12,19.10
2018,04,24,17,13,19.10
2018,04,24,17,14,19.00
2018,04,24,17,15,19.00
2018,04,24,17,16,19.10
2018,04,24,17,17,19.10
2018,04,24,17,18,19.20
2018,04,24,17,19,19.30
2018,04,24,17,20,19.40
2018,04,24,17,21,19.50
2018,04,24,17,22,19.50
2018,04,24,17,23,19.60
2018,04,24,17,24,19.70
2018,04,24,17,25,19.70
2018,04,24,17,26,19.60
2018,04,24,17,27,19.60
2018,04,24,17,28,19.60
2018,04,24,17,29,19.60
2018,04,24,17,30,19.60
2018,04,24,17,31,19.60
2018,04,24,17,32,19.60
2018,04,24,17,33,19.50
2018,04,24,17,34,19.40
2018,04,24,17,35,19.40
2018,04,24,17,36,19.30
2018,04,24,17,37,19.40
2018,04,24,17,38,19.30
2018,04,24,17,39,19.20
2018,04,24,17,40,19.10